Regional Weather Roundup
Issued by NWS

Home | Current Version | Previous Version | Graphics & Text | Print | Product List | Glossary On
Versions: 1 2 3 4 5 6 7 8 9 10 11 12 13 14 15 16 17 18 19 20 21 22 23 24 25 26 27 28 29 30 31 32 33 34 35 36 37 38 39 40 41 42 43 44 45 46 47 48
000
ASUS43 KDMX 230007
RWRIA

WEATHER ROUNDUP FOR IOWA
NATIONAL WEATHER SERVICE DES MOINES IA
700 PM CDT MON SEP 22 2014

NOTE: "FAIR" INDICATES FEW OR NO CLOUDS BELOW 12,000 FEET WITH NO
SIGNIFICANT WEATHER AND/OR OBSTRUCTIONS TO VISIBILITY.

* - THESE STATIONS ARE NOT NWS STATIONS...THUS NOT UNDER NWS
QUALITY CONTROL.  THEY ALSO DO NOT REPORT WEATHER SUCH
AS PRECIPITATION OR FOG.

IAZ001>003-012>014-020>022-031>034-043>046-230100-
   NORTHWEST IOWA

CITY           SKY/WX    TMP DP  RH WIND       PRES   REMARKS
CARROLL *      CLEAR     64  52  63 S3        30.20S
CHEROKEE *     PTCLDY    65  53  65 SE5       30.18F
DENISON *      CLEAR     66  52  59 S5        30.18S
LE MARS *      CLEAR     66  52  59 S6        30.16F
ORANGE CITY *  CLEAR     68  46  45 S5        30.17F
SHELDON *      CLEAR     64  50  59 S6        30.16F
SIOUX CITY     PTCLDY    68  51  54 S6        30.17F
6HR MIN TEMP:  68; 6HR MAX TEMP:  75;

SPENCER        CLEAR     65  50  58 S5        30.18F
6HR MIN TEMP:  65; 6HR MAX TEMP:  73;

STORM LAKE *   CLEAR     64  54  68 S5        30.19F
$$

IAZ055>058-069>071-079>083-090>094-230100-
   SOUTHWEST IOWA

CITY           SKY/WX    TMP DP  RH WIND       PRES   REMARKS
ATLANTIC *     CLEAR     68  50  52 CALM      30.19F
AUDUBON *      CLEAR     63  52  67 SW3       30.22S
CLARINDA *     CLEAR     68  54  60 SE3       30.22S
COUNCIL BLFS * CLEAR     66  54  63 SE6       30.18F
CRESTON *      CLEAR     66  54  63 S6        30.22S
HARLAN  *      CLEAR     64  54  68 S3        30.23S
LAMONI         CLEAR     67  51  56 SE5       30.22F
6HR MIN TEMP:  66; 6HR MAX TEMP:  72;

RED OAK *      CLEAR     68  52  56 SE5       30.20S
SHENANDOAH *   CLEAR     68  52  56 CALM      30.20S
$$

IAZ047>049-059>061-072>074-084-230100-
   CENTRAL IOWA

CITY           SKY/WX    TMP DP  RH WIND       PRES   REMARKS
AMES           CLEAR     61  52  72 S7        30.21S
6HR MIN TEMP:  61; 6HR MAX TEMP:  73;

ANKENY *       CLEAR     66  52  59 CALM      30.21S
CHARITON *     CLEAR     66  52  59 SE3       30.22F
DES MOINES     PTCLDY    69  50  50 S6        30.21S
6HR MIN TEMP:  68; 6HR MAX TEMP:  74;

GRINNELL*      PTCLDY    65  51  61 S3        30.23S
KNOXVILLE *    CLEAR     66  52  59 S5        30.21S
MARSHALLTOWN   PTCLDY    66  51  58 S6        30.21S
6HR MIN TEMP:  66; 6HR MAX TEMP:  72;

PELLA *        CLEAR     66  52  61 S3        30.23S
PERRY *          N/A     64  51  63 CALM      30.20F
$$

IAZ004>006-015-016-023>025-035-036-230100-
   NORTH CENTRAL IOWA

CITY           SKY/WX    TMP DP  RH WIND       PRES   REMARKS
ALGONA *       CLEAR     66  50  55 S5        30.19S
CLARION *        N/A     66  46  48 S7        30.20S
ESTHERVILLE    PTCLDY    65  49  56 S7        30.17F
6HR MIN TEMP:  65; 6HR MAX TEMP:  71;

FORT DODGE *   CLEAR     63  52  67 CALM      30.20S
MASON CITY     CLEAR     63  50  62 S3        30.21S
6HR MIN TEMP:  63; 6HR MAX TEMP:  71;

FOREST CITY *  CLEAR     64  48  55 S5        30.19S
IOWA FALLS *     N/A     66  46  48 S6        30.21S
$$

IAZ007>011-017>019-026>030-037>042-050>054-066-230100-
   NORTHEAST IOWA

CITY           SKY/WX    TMP DP  RH WIND       PRES   REMARKS
CEDAR RAPIDS   CLEAR     62  50  64 S3        30.22S
6HR MIN TEMP:  62; 6HR MAX TEMP:  70;

CHARLES CITY * CLEAR     64  50  59 SW3       30.21S
CLINTON *      CLEAR     61  52  72 SW3       30.25S
DECORAH *      CLEAR     64  50  59 CALM      30.19S
DUBUQUE        CLEAR     61  49  64 CALM      30.22F
6HR MIN TEMP:  61; 6HR MAX TEMP:  69;

MONTICELLO *   CLEAR     63  50  63 SW5       30.21F
OELWEIN *      CLEAR     64  50  59 SW5       30.21S
WATERLOO       CLEAR     64  50  60 S5        30.20R
6HR MIN TEMP:  64; 6HR MAX TEMP:  73;

$$

IAZ064-065-067-068-078-230100-
   EAST CENTRAL IOWA

CITY           SKY/WX    TMP DP  RH WIND       PRES   REMARKS
DAVENPORT      CLEAR     60  47  61 S5        30.23F
6HR MIN TEMP:  60; 6HR MAX TEMP:  72;

IOWA CITY      CLEAR     66  52  60 S3        30.23F
6HR MIN TEMP:  65; 6HR MAX TEMP:  71;

MT. PLEASANT * CLEAR     65  47  52 CALM      30.24R
MUSCATINE *    CLEAR     66  46  48 S5        30.23S
QUAD CITIES    CLEAR     61  50  67 S3        30.23S
6HR MIN TEMP:  61; 6HR MAX TEMP:  71;

$$

IAZ062-063-075>077-085>089-095>099-230100-
   SOUTHEAST IOWA

CITY           SKY/WX    TMP DP  RH WIND       PRES   REMARKS
BURLINGTON     CLEAR     63  50  62 CALM      30.23F
6HR MIN TEMP:  63; 6HR MAX TEMP:  72; 6HR PCP: TRACE;

FAIRFIELD *    CLEAR     66  46  48 S5        30.24S
FORT MADISON * CLEAR     64  48  55 CALM      30.25S
KEOKUK *       CLEAR     63  55  77 CALM      30.23S HAZE
OSKALOOSA *      N/A     64  50  61 S5        30.23F
CENTERVILLE *  CLEAR     63  55  77 S3        30.25S
OTTUMWA        PTCLDY    65  47  52 S3        30.23S
6HR MIN TEMP:  65; 6HR MAX TEMP:  71;

WASHINGTON *   CLEAR     64  50  59 S5        30.23S
$$

ABBREVIATIONS USED IN REMARKS
   TC - TEMPERATURES IN CELSIUS
  WCI - WIND CHILL INDEX
   HX - HEAT INDEX
  VSB - VISIBILITY
$$



USA.gov is the U.S. government's official web portal to all federal, state and local government web resources and services.